Weather in Merzouga

Morocco     31°05′56″N   4°00′59″W
temp.,
°C
wind,
m/s
gust,
m/s
humid.,
%
clouds,
%
prec.,
mm/h
press.,
hPa
HPBL,
m
25 may, wed
wed2501:00+27ene6920100 0.0 1008123
04:00+24ene61034100 0.0 1008165
07:00+23ene611345 0.0 1010284
10:00+29e55190 0.0 10101147
13:00+33ese33124 0.0 10092165
16:00+36ene029100 0.0 10073309
19:00+35nw229100 0.0 10073056
22:00+30e00145 0.0 100911
26 may, thu
thu2601:00+24ne9142036 0.0 1012337
04:00+22ene81326100 0.0 1013309
07:00+21ne8152473 0.0 1015439
10:00+27ene66178 0.0 10161085
13:00+31ese44139 0.0 10151640
16:00+34sse23105 0.0 10122441
19:00+34sw4590 0.0 10112424
22:00+29nne11120 0.0 101311
27 may, fri
fri2701:00+28se44121 0.0 101423
04:00+26sse33140 0.0 101417
07:00+25sse22156 0.0 101514
10:00+31ese551196 0.0 1015776
13:00+36w3880 0.0 10142869
16:00+38nw57816 0.0 10114153
19:00+30ese662284 0.4 1014253
22:00+28w91125100 0.4 1018322
28 may, sat
sat2801:00+28n582797 0.7 1016324
04:00+26n3531100 0.0 101570
07:00+25e1128100 0.0 101511
10:00+31nw321986 0.0 1015764
13:00+35nw4414100 0.0 10143406
16:00+35nnw561454 0.0 10113651
19:00+32nne4318100 0.0 1011668
22:00+28ne4830100 0.0 1013220
29 may, sun
sun2901:00+26nne9143399 0.0 1014518
04:00+26ne81434100 0.0 1013425
07:00+25n473565 0.0 1014361
10:00+31ene57235 0.0 10131169
13:00+35se671578 0.0 10102983
16:00+37ssw5612100 0.0 10074551
19:00+36sw671193 0.0 10064326
22:00+29w91329100 0.1 1011607